Weather History for Concordia, KS

Change the Weather History Date:

Thursday, March 13, 2014

  Actual Average Record
Temperature  
Mean Temperature 50 °F 42 °F  
Max Temperature 71 °F 54 °F 82 °F (2012)
Min Temperature 30 °F 31 °F 3 °F (1975)
Degree Days  
Heating Degree Days 14 23  
Month to date heating degree days 327  
Since 1 July heating degree days 4534  
Cooling Degree Days 0 0  
Month to date cooling degree days 0  
Year to date cooling degree days 0  
Moisture  
Dew Point 20 °F    
Average Humidity 35    
Maximum Humidity 67    
Minimum Humidity 5    
Precipitation  
Precipitation 0.00 in 0.06 in 0.56 in (1925)
Month to date precipitation 0.66  
Year to date precipitation 2.03  
Snow  
Snow 0.00 in 0.00 in 2.70 in (2011)
Month to date snowfall 0.9  
Year to date snowfall 11.3  
Since 1 July snowfall 17.8  
Snow Depth -    
Sea Level Pressure  
Sea Level Pressure 29.96 in    
Wind  
Wind Speed 11 mph (SW)    
Max Wind Speed 23 mph    
Max Gust Speed 28 mph    
Visibility 10 miles    
Events      
T = Trace of Precipitation, MM = Missing Value Source: NWS Daily Summary

Daily Weather History Graph

Daily Weather History Graph

Search for Another Location

Airport:

Trip Planner

Search our weather history database for the weather conditions in past years. The results will help you decide how hot, cold, wet, or windy it might be!

Date:

Astronomy

Mar. 13, 2014 Rise Set
Actual Time 7:45 AM CDT 7:35 PM CDT
Civil Twilight 7:18 AM CDT 8:02 PM CDT
Nautical Twilight 6:47 AM CDT 8:33 PM CDT
Astronomical Twilight 6:15 AM CDT 9:05 PM CDT
Moon 5:03 PM CDT (3/13) 5:52 AM CDT (3/13)
Length of Visible Light 12h 44m
Length of Day
11h 50m
Waxing Gibbous, 91% of the Moon is Illuminated
Mar 13
Waxing Gibbous
Mar 16
Full
Mar 23
Last Quarter
Mar 30
New
Apr 7
First Quarter

Hourly Weather History & Observations

Time (CDT) Temp. Windchill Dew Point Humidity Pressure Visibility Wind Dir Wind Speed Gust Speed Precip Events Conditions
12:55 AM 39.0 °F 32.8 °F 19.9 °F 46% 30.11 in 10.0 mi WSW 9.2 mph - N/A   Clear
1:55 AM 37.0 °F 31.0 °F 19.9 °F 50% 30.10 in 10.0 mi West 8.1 mph - N/A   Clear
2:55 AM 37.0 °F 31.0 °F 19.9 °F 50% 30.10 in 10.0 mi West 8.1 mph - N/A   Clear
3:55 AM 35.1 °F 27.9 °F 19.9 °F 54% 30.08 in 10.0 mi West 9.2 mph - N/A   Clear
4:55 AM 34.0 °F 26.6 °F 19.9 °F 56% 30.09 in 10.0 mi West 9.2 mph - N/A   Clear
5:55 AM 32.0 °F 23.6 °F 21.0 °F 64% 30.09 in 10.0 mi WSW 10.4 mph - N/A   Clear
6:55 AM 30.9 °F 21.7 °F 21.0 °F 67% 30.09 in 10.0 mi WSW 11.5 mph - N/A   Clear
7:55 AM 30.9 °F 21.7 °F 21.0 °F 67% 30.10 in 10.0 mi WSW 11.5 mph - N/A   Clear
8:55 AM 36.0 °F 31.1 °F 24.1 °F 62% 30.10 in 10.0 mi WSW 5.8 mph - N/A   Clear
9:55 AM 41.0 °F 37.1 °F 26.1 °F 55% 30.09 in 10.0 mi WSW 5.8 mph - N/A   Clear
10:55 AM 51.1 °F - 27.0 °F 39% 30.08 in 10.0 mi WSW 8.1 mph - N/A   Clear
11:55 AM 57.9 °F - 25.0 °F 28% 30.05 in 10.0 mi SW 10.4 mph - N/A   Clear
12:55 PM 61.0 °F - 23.0 °F 23% 30.01 in 10.0 mi SSW 12.7 mph 21.9 mph N/A   Clear
1:55 PM 64.0 °F - 19.9 °F 18% 29.97 in 10.0 mi WSW 13.8 mph 27.6 mph N/A   Clear
2:55 PM 68.0 °F - 18.0 °F 15% 29.91 in 10.0 mi SSW 19.6 mph - N/A   Clear
3:55 PM 69.1 °F - 16.0 °F 13% 29.86 in 10.0 mi SW 12.7 mph 25.3 mph N/A   Clear
4:55 PM 71.1 °F - 9.0 °F 9% 29.82 in 10.0 mi SSW 16.1 mph 26.5 mph N/A   Clear
5:55 PM 70.0 °F - 12.9 °F 11% 29.79 in 10.0 mi SSW 17.3 mph - N/A   Clear
6:55 PM 66.9 °F - 12.9 °F 12% 29.78 in 10.0 mi SSW 17.3 mph - N/A   Clear
7:55 PM 59.0 °F - 16.0 °F 19% 29.78 in 10.0 mi South 12.7 mph - N/A   Clear
8:55 PM 53.1 °F - 18.0 °F 25% 29.76 in 10.0 mi South 11.5 mph - N/A   Clear
9:55 PM 55.9 °F - 19.9 °F 25% 29.73 in 10.0 mi South 18.4 mph - N/A   Clear
10:55 PM 54.0 °F - 19.9 °F 26% 29.70 in 10.0 mi South 18.4 mph - N/A   Clear
11:55 PM 52.0 °F - 19.9 °F 28% 29.68 in 10.0 mi South 23.0 mph 27.6 mph N/A   Clear